Shiprock Marathon 2016

# of participants: 1154# of finishers: 1025last updated: 5/9/2016 3:08 pm
Result Questions?
OA Race Rank Elapsed Time Pace Bib First Last Category OA Gender Team Name Gender Age City ST
1 2:46:48.4 6:22/mile 184 G Anthony Kunkel Marathon 1 M 24 Durango CO
2 2:56:37.6 6:44/mile 226 Trent Taylor Marathon 2 M 35 Gilbert AZ
3 2:56:47.0 6:44/mile 71 Wayne Sekaquaptewa Marathon 3 M 36 Scottsdale AZ
4 2:57:54.0 6:47/mile 187 Ryan Niehaus Marathon 4 M 32 Farmington NM
5 3:06:36.3 7:07/mile 183 Jerrin Benally Marathon 5 M 32 Chinle AZ
6 3:07:09.4 7:08/mile 74 Sean Bowman Marathon 6 M 40 Sunnyvale CA
7 3:09:59.6 7:15/mile 259 Larry Butler Marathon 7 M 40 Tuba City
8 3:12:28.2 7:20/mile 81 Cody Curley Marathon 8 M 30 Albuquerque NM
10 3:15:21.5 7:27/mile 12 Ryan Houselog Marathon 9 M 29 Casa Grande AZ
11 3:15:21.7 7:27/mile 23 Daniel Omans Marathon 10 M 35 Mayer AZ
13 3:18:59.6 7:35/mile 95 Cade Remsburg Marathon 11 M 43 West Des Moines IA
14 3:22:18.8 7:43/mile 68 Vincent Hesch Marathon 12 M 53 Santa Fe NM
15 3:22:51.2 7:44/mile 169 Brad Kautz Marathon 13 M 58 Dulce NM
16 3:23:33.0 7:46/mile 18 Travis Nez Marathon 14 M 25
17 3:23:43.7 7:46/mile 197 Jason Hill Marathon 15 M 34 Phoenix AZ
18 3:24:42.8 7:48/mile 93 CJ Lage Marathon 16 M 42 Urbandale IA
19 3:24:54.5 7:49/mile 59 Daryl Horton Marathon 17 M 30 Scottsdale AZ
20 3:25:36.1 7:50/mile 113 Philip Hodge Marathon 18 M 50 Little Elm TX
21 3:25:47.8 7:51/mile 135 Mark Kimball Marathon 19 M 27 Salt Lake City UT
23 3:26:38.3 7:53/mile 79 Randy Gonzales Marathon 20 M 25 Farmington NM
24 3:27:15.8 7:54/mile 63 Ron Nelson Marathon 21 M 57 Colorado Springs CO
25 3:28:40.3 7:57/mile 132 Bryan Baroffio Marathon 22 M 57 Grand Junction CO
26 3:28:57.3 7:58/mile 108 Jon Austin Marathon 23 M 58 Madison Heights MI
27 3:29:17.3 7:59/mile 128 Robert Tsinnajinnie Marathon 24 M 42 Albuquerque NM
28 3:29:17.4 7:59/mile 258 Tim Webb Marathon 25 M 45 Dolores CO
29 3:29:35.5 7:59/mile 203 Sidney Scheer Marathon 26 M 25 Albuquerque NM
30 3:30:18.7 8:01/mile 209 John Topolski Marathon 27 M 33 Albuquerque NM
31 3:33:44.2 8:09/mile 101 Marvin Chee Marathon 28 M 54 Phoenix AZ
33 3:34:08.4 8:10/mile 87 Travis Revicki Marathon 29 M 27 Portland CT
34 3:34:13.4 8:10/mile 153 Casey Long Marathon 30 M 22 Durango CO
35 3:34:42.9 8:11/mile 199 Jerry Knox Marathon 31 M 46 Chino Hills CA
37 3:37:31.5 8:18/mile 147 Ron Haven Marathon 32 M 58 St Michaels AZ
38 3:39:02.4 8:21/mile 230 Ricky Nez Marathon 33 M 36 Albuquerque NM
39 3:40:38.3 8:25/mile 52 Jess Montour Marathon 34 M 25 Flagstaff AZ
41 3:41:39.7 8:27/mile 251 Cody Bahe Marathon 35 M 23 Gallup NM
42 3:42:25.1 8:29/mile 35 Jonathan Jones Marathon 36 M 31 Tempe AZ
44 3:44:55.5 8:35/mile 10 Snow Hudgins Marathon 37 M 47 Denver CO
45 3:48:09.2 8:42/mile 20 Sean Oconnor Marathon 38 M 50 Granger IN
46 3:48:36.6 8:43/mile 205 Dexter Young Marathon 39 M 40 Chula Vista CA
47 3:48:37.6 8:43/mile 9 Peter Morgan Marathon 40 M 45 Denver CO
48 3:49:22.8 8:45/mile 80 Gilbert Barker Marathon 41 M 60 Littleton CO
50 3:54:40.6 8:57/mile 143 Jonathan Charley Marathon 42 M 19 Kirtland NM
51 3:54:58.5 8:58/mile 65 Hector Reyes Marathon 43 M 33 Denver CO
52 3:55:02.7 8:58/mile 134 Andrew Zapanta Marathon 44 M 41 Charlottesville VA
53 3:55:11.1 8:58/mile 110 Glen Anderson Marathon 45 M 49 Kents Store VA
54 3:55:22.5 8:59/mile 137 Timothy Dufour Marathon 46 M 55 Libertyville IL
56 3:55:59.7 9:00/mile 213 Thomas Perri Marathon 47 M 54 Maple Grove MN
57 3:56:34.0 9:01/mile 48 Russ Mitchell Marathon 48 M 47 Florence KY
58 3:58:39.7 9:06/mile 194 Shane Garling Marathon 49 M 44 Portland OR
59 3:59:17.0 9:07/mile 200 Curtis Chong Marathon 50 M 39 Cambridge MA
61 4:00:34.5 9:10/mile 234 Jason Begody Marathon 51 M 37 Tuba City AZ
62 4:00:44.9 9:11/mile 249 Christopher Wood Marathon 52 M 34 New York NY
64 4:03:03.9 9:16/mile 238 Tyrell David Marathon 53 M 17 Farmington NM
66 4:04:06.9 9:19/mile 179 Jason Mcroy Marathon 54 M 55 Sun Valley AZ
67 4:04:27.8 9:19/mile 166 Lee Stock Marathon 55 M 55 Green Bay WI
68 4:05:20.1 9:21/mile 62 Pierre Mark Marathon 56 M 27 Window Rock AZ
69 4:06:28.2 9:24/mile 229 Timothy Begay Marathon 57 M 27 Ganado AZ
70 4:06:31.3 9:24/mile 218 Bruce Hatathli Marathon 58 M 61 Cameron AZ
71 4:08:38.8 9:29/mile 53 Michael Doherty Marathon 59 M 37 Austin TX
72 4:10:16.0 9:33/mile 232 LUTHER PAUL Marathon 60 M 33 FORT DEFIANCE AZ
73 4:10:38.9 9:34/mile 224 Kyle Lameman Marathon 61 M 28 Shiprock NM
74 4:11:03.5 9:34/mile 180 Julius Begay Marathon 62 M 42 Chinle AZ
76 4:13:54.3 9:41/mile 111 John Kern Marathon 63 M 62 Juneau AK
77 4:14:11.6 9:42/mile 16 Brett Pinegar Marathon 64 M 49 Salt Lake UT
80 4:15:22.2 9:44/mile 11 Michael Ball Marathon 65 M 40 Hudsonville MI
81 4:15:23.6 9:44/mile 139 Marlon Onco Marathon 66 M 52 Norman OK
82 4:15:41.8 9:45/mile 73 Brendan Lundy Marathon 67 M 56 Shankill Dublin
84 4:17:52.1 9:50/mile 130 Graham Beyale Marathon 68 M 26 Shiprock NM
85 4:18:03.3 9:50/mile 2 Mark Trotter Marathon 69 M 32 Flagstaff AZ
87 4:18:39.4 9:52/mile 19 Kristian Simcox Marathon 70 M 38 Gallup NM
89 4:19:00.3 9:53/mile 222 Glenn Michael Marathon 71 M 66 Glendale AZ
90 4:19:35.9 9:54/mile 88 Alexander Dreussi Marathon 72 M 28 Canton OH
91 4:20:53.1 9:57/mile 176 Michael Laper Marathon 73 M 57 Farmington NM
92 4:22:37.6 10:01/mile 182 Nash Uebelhart Marathon 74 M 67 Woodland Park CO
94 4:24:25.3 10:05/mile 64 Brandon Benally Marathon 75 M 27 Provo UT
95 4:24:26.5 10:05/mile 190 Derrick Zahne Marathon 76 M 35 Shiprock NM
96 4:25:40.1 10:08/mile 233 Byron Smith Marathon 77 M 37 Tohatchi NM
98 4:26:09.1 10:09/mile 43 Lenart Tso Marathon 78 M 30 Farmington NM
100 4:27:52.5 10:13/mile 115 Joe Anzivino Marathon 79 M 59 Las Cruces NM
102 4:29:00.2 10:16/mile 90 Dan Vanderiet Marathon 80 M 54 Gallup NM
103 4:31:28.1 10:21/mile 40 Robert Gleckler Marathon 81 M 55 Scottsdale AZ
105 4:32:02.7 10:23/mile 177 Murvyn Hoskie Marathon 82 M 45 Window Rock AZ
107 4:32:17.3 10:23/mile 103 James Antonio Marathon 83 M 37 Shiprock NM
109 4:33:40.3 10:26/mile 54 William Dusch Marathon 84 M 62 Concord NC
110 4:35:13.4 10:30/mile 106 Thomas Atcitty Ii Marathon 85 M 42 Shiprock NM
114 4:38:41.0 10:38/mile 214 Mike Smith Marathon 86 M 53 Churchrock NM
116 4:39:34.0 10:40/mile 245 Zachary Begay Marathon 87 M 34 Gallup NM
117 4:41:34.9 10:44/mile 86 James Buchanan Marathon 88 M 55 Houston TX
124 4:44:21.2 10:51/mile 104 Paul Braxton Marathon 89 M 61 Chinle AZ
125 4:44:53.1 10:52/mile 46 Joshua Longhat Marathon 90 M 36 Zuni NM
126 4:45:00.6 10:52/mile 117 Eugene Chee Marathon 91 M 36 Gallup NM
127 4:45:24.3 10:53/mile 42 Gary Hennigan Marathon 92 M 50 Albuquerque NM
128 4:45:44.0 10:54/mile 178 Rodney Roanhorse Marathon 93 M 47 Phoenix AZ
131 4:47:06.9 10:57/mile 105 Adam Braxton Marathon 94 M 23 Chinle AZ
133 4:47:47.5 10:59/mile 41 Glenn Takahashi Marathon 95 M 68 Dunnellon FL
135 4:49:22.6 11:02/mile 217 Jasper Howe Marathon 96 M 37 Flagstaff AZ
136 4:50:45.7 11:05/mile 241 Kiyoshi Hayakawa Marathon 97 M 52 El Reno OK
139 4:51:51.0 11:08/mile 212 Lyn Thomas Marathon 98 M 36 Waterflow NM
140 4:53:21.3 11:11/mile 163 Paul Evans Marathon 99 M 31 Lexington KY
144 4:54:38.6 11:14/mile 77 Jeff Mccord Marathon 100 M 61 Cottonwood AZ